1321401628126,1.20050
1321401688126,1.20931
1321401748126,1.20937
1321401808126,1.19671
1321401868126,1.20244
1321401928126,1.19874
1321401988126,1.20894
1321402048126,1.20569
1321402108126,1.20372
1321402168126,1.20314
1321402228126,1.20050
1321402288126,1.20720
1321402348126,1.19777
1321402408126,1.20561
1321402468126,1.20831
1321402528126,1.20050
1321402588126,1.20259
1321402648126,1.20787
1321402708126,1.19778
1321402768126,1.19248
1321402828126,1.20631
1321402888126,1.19775
1321402948126,1.19494
1321403008126,1.20932
1321403068126,1.19968
1321403128126,1.19500
1321403188126,1.20070
1321403248126,1.18877
1321403308126,1.19472
1321403368126,1.20453
1321403428126,1.19482
1321403488126,1.19721
1321403548126,1.19383
1321403608126,1.20573
1321403668126,1.19925
1321403728126,1.18930
1321403788126,1.19175
1321403848126,1.19750
1321403908126,1.18585
1321403968126,1.18881
1321404028126,1.19089
1321404088126,1.19142
1321404148126,1.19084
1321404208126,1.18977
1321404268126,1.18342
1321404328126,1.18648
1321404388126,1.18893
1321404448126,1.17944
1321404508126,1.18964
1321404568126,1.18472
1321404628126,1.17386
1321404688126,1.17848
1321404748126,1.18702
1321404808126,1.18324
1321404868126,1.18101
1321404928126,1.18901
1321404988126,1.16777
1321405048126,1.17600
1321405108126,1.18112
1321405168126,1.18089
1321405228136,1.17709
1321405288136,1.18991
1321405348136,1.18402
1321405408136,1.18782
1321405468136,1.19901
1321405528136,1.18399
1321405588136,1.19395
1321405648136,1.19096
1321405708136,1.19658
1321405768136,1.19407
1321405828136,1.19363
1321405888136,1.19125
1321405948136,1.18479
1321406008136,1.19774
1321406068136,1.18377
1321406128136,1.19007
1321406188136,1.18924
1321406248136,1.18528
1321406308136,1.17581
1321406368136,1.18663
1321406428136,1.17278
1321406488136,1.18403
1321406548136,1.18652
1321406608136,1.18582
1321406668136,1.18311
1321406728136,1.18319
1321406788136,1.17472
1321406848136,1.18432
1321406908136,1.18862
1321406968136,1.18123
1321407028136,1.17507
1321407088136,1.17951
1321407148136,1.17768
1321407208136,1.17928
1321407268136,1.17569
1321407328136,1.16723
1321407388136,1.16894
1321407448136,1.17823
1321407508136,1.17571
1321407568136,1.17603
1321407628136,1.16704
1321407688136,1.17645
1321407748136,1.17242
1321407808136,1.17944
1321407868136,1.17551
1321407928136,1.18343
1321407988136,1.17863
1321408048136,1.18391
1321408108136,1.17514
1321408168136,1.16834
1321408228136,1.16760
1321408288136,1.16628
1321408348136,1.16425
1321408408136,1.16216
1321408468136,1.16406
1321408528136,1.16149
1321408588136,1.16883
1321408648136,1.16283
1321408708136,1.15874
1321408768136,1.16388
1321408828146,1.15542
1321408888146,1.15702
1321408948146,1.15375
1321409008146,1.15949
1321409068146,1.15983
1321409128146,1.16605
1321409188146,1.16749
1321409248146,1.16956
1321409308146,1.17151
1321409368146,1.16343
1321409428146,1.17519
1321409488146,1.16804
1321409548146,1.16551
1321409608146,1.16540
1321409668146,1.16791
1321409728146,1.16837
1321409788146,1.15818
1321409848146,1.16098
1321409908146,1.16548
1321409968146,1.15909
1321410028146,1.16902
1321410088146,1.16049
1321410148146,1.16693
1321410208146,1.16896
1321410268146,1.16912
1321410328146,1.16852
1321410388146,1.16229
1321410448146,1.17086
1321410508146,1.16455
1321410568146,1.17504
1321410628146,1.16841
1321410688146,1.16690
1321410748146,1.17186
1321410808146,1.17025
1321410868146,1.16923
1321410928146,1.17559
1321410988146,1.17381
1321411048146,1.17213
1321411108146,1.16602
1321411168146,1.17086
1321411228146,1.16515
1321411288146,1.17034
1321411348146,1.17495
1321411408146,1.17260
1321411468146,1.18043
1321411528146,1.18467
1321411588146,1.17224
1321411648146,1.17039
1321411708146,1.17495
1321411768146,1.17184
1321411828146,1.17571
1321411888146,1.16725
1321411948146,1.17657
1321412008146,1.17994
1321412068146,1.17956
1321412128146,1.17910
1321412188146,1.17508
1321412248146,1.17705
1321412308146,1.18592
1321412368146,1.18602
1321412428156,1.19928
1321412488156,1.20008
1321412548156,1.20095
1321412608156,1.21108
1321412668156,1.21671
1321412728156,1.20882
1321412788156,1.21543
1321412848156,1.21315
1321412908156,1.21043
1321412968156,1.20570
1321413028156,1.19767
1321413088156,1.18829
1321413148156,1.18177
1321413208156,1.18849
1321413268156,1.17720
1321413328156,1.17559
1321413388156,1.17627
1321413448156,1.17970
1321413508156,1.17837
1321413568156,1.17453
1321413628156,1.17821
1321413688156,1.17346
1321413748156,1.16400
1321413808156,1.16573
1321413868156,1.16512
1321413928156,1.17405
1321413988156,1.16455
1321414048156,1.15356
1321414108156,1.16686
1321414168156,1.17020
1321414228156,1.17226
1321414288156,1.17724
1321414348156,1.18464
1321414408156,1.19237
1321414468156,1.18323
1321414528156,1.19941
1321414588156,1.18937
1321414648156,1.19736
1321414708156,1.19687
1321414768156,1.19052
1321414828156,1.20384
1321414888156,1.19737
1321414948156,1.20966
1321415008156,1.20676
1321415068156,1.21110
1321415128156,1.22310
1321415188156,1.22537
1321415248156,1.21981
1321415308156,1.21032
1321415368156,1.21208
1321415428156,1.21410
1321415488156,1.20231
1321415548156,1.20033
1321415608156,1.19521
1321415668156,1.19705
1321415728156,1.19383
1321415788156,1.19397
1321415848156,1.19375
1321415908156,1.19822
1321415968156,1.18525
1321416028166,1.18586
1321416088166,1.18396
1321416148166,1.18078
1321416208166,1.17029
1321416268166,1.17715
1321416328166,1.17479
1321416388166,1.17211
1321416448166,1.16625
1321416508166,1.16622
1321416568166,1.17996
1321416628166,1.17100
1321416688166,1.16713
1321416748166,1.16595
1321416808166,1.16277
1321416868166,1.17894
1321416928166,1.16307
1321416988166,1.16461
1321417048166,1.17073
1321417108166,1.16962
1321417168166,1.16562
1321417228166,1.16875
1321417288166,1.17037
1321417348166,1.16935
1321417408166,1.16308
1321417468166,1.16369
1321417528166,1.16314
1321417588166,1.15938
1321417648166,1.16427
1321417708166,1.16335
1321417768166,1.16724
1321417828166,1.15946
1321417888166,1.16268
1321417948166,1.16185
1321418008166,1.15165
1321418068166,1.15643
1321418128166,1.14508
1321418188166,1.14432
1321418248166,1.15514
1321418308166,1.15004
1321418368166,1.14746
1321418428166,1.15549
1321418488166,1.14905
1321418548166,1.14644
1321418608166,1.15222
1321418668166,1.16441
1321418728166,1.15993
1321418788166,1.16129
1321418848166,1.16799
1321418908166,1.16631
1321418968166,1.16252
1321419028166,1.16633
1321419088166,1.19353
1321419148166,1.21031
1321419208166,1.22605
1321419268166,1.27350
1321419328166,1.30199
1321419388166,1.33087
1321419448166,1.33186
1321419508166,1.31130
1321419568166,1.31060
1321419628175,1.30676
1321419688175,1.29764
1321419748175,1.28811
1321419808175,1.28113
1321419868175,1.27312
1321419928175,1.26561
1321419988175,1.25258
1321420048175,1.24565
1321420108175,1.23820
1321420168175,1.22850
1321420228175,1.22581
1321420288175,1.21207
1321420828175,1.22273
1321420888175,1.21602
1321420948175,1.21324
1321421008175,1.21236
1321421068175,1.21415
1321421128175,1.20980
1321421188175,1.20632
1321421248175,1.21290
1321421308175,1.21192
1321421368175,1.19893
1321421428175,1.20370
1321421488175,1.21704
1321421548175,1.21193
1321421608175,1.21210
1321421668175,1.20997
1321421728175,1.20655
1321421788175,1.21121
1321421848175,1.20476
1321421908175,1.20060
1321421968175,1.20725
1321422028175,1.20811
1321422088175,1.19278
1321422148175,1.20183
1321422208175,1.18962
1321422268175,1.18670
1321422328175,1.19628
1321422388175,1.19043
1321422448175,1.18101
1321422508175,1.18064
1321422568175,1.18243
1321422628175,1.18299
1321422688175,1.17950
1321422748175,1.17624
1321422808175,1.18163
1321422868175,1.18383
1321422928175,1.18421
1321422988175,1.18630
1321423048175,1.18967
1321423108175,1.18905
1321423168175,1.19193
1321423228185,1.19493
1321423288185,1.20386
1321423348185,1.20363
1321423408185,1.20094
1321423468185,1.20895
1321423528185,1.20111
1321423588185,1.20540
1321423648185,1.20376
1321423708185,1.20880
1321423768185,1.19792
1321423828185,1.19488
1321423888185,1.19687
1321423948185,1.19830
1321424008185,1.19395
1321424068185,1.20902
1321424128185,1.20724
1321424188185,1.21259
1321424248185,1.22071
1321424308185,1.23033
1321424368185,1.22323
1321424428185,1.23888
1321424488185,1.24310
1321424548185,1.24467
1321424608185,1.24364
1321424668185,1.25071
1321424728185,1.26603
1321424788185,1.26834
1321424848185,1.27852
1321424908185,1.27823
1321424968185,1.27709
1321425028185,1.28476
1321425088185,1.28278
1321425148185,1.29036
1321425208185,1.28390
1321425268185,1.26693
1321425328185,1.27362
1321425388185,1.25618
1321425448185,1.25204
1321425508185,1.26242
1321425568185,1.24511
1321425628185,1.24067
1321425688185,1.22670
1321425748185,1.22323
1321425808185,1.22611
1321425868185,1.21238
1321425928185,1.20903
1321425988185,1.21048
1321426048185,1.20693
1321426108185,1.19867
1321426168185,1.20542
1321426228185,1.20041
1321426288185,1.19220
1321426348185,1.20205
1321426408185,1.18662
1321426468185,1.19166
1321426528185,1.17829
1321426588185,1.18332
1321426648185,1.18436
1321426708185,1.17937
1321426768185,1.17802
1321426828196,1.16481
1321426888196,1.17311
1321426948196,1.16171
1321427008196,1.16313
1321427068196,1.15980
1321427128196,1.16315
1321427188196,1.15640
1321427248196,1.15927
1321427308196,1.16822
1321427368196,1.16327
1321427428196,1.16270
1321427488196,1.15294
1321427548196,1.15694
1321427608196,1.15198
1321427668196,1.15994
1321427728196,1.16332
1321427788196,1.15757
1321427848196,1.16075
1321427908196,1.15392
1321427968196,1.15301
1321428028196,1.15956
1321428088196,1.15860
1321428148196,1.15897
1321428208196,1.14522
1321428268196,1.14887
1321428328196,1.15552
1321428388196,1.14783
1321428448196,1.14224
1321428508196,1.14630
1321428568196,1.14816
1321428628196,1.14557
1321428688196,1.15131
1321428748196,1.15958
1321428808196,1.15322
1321428868196,1.16358
1321428928196,1.15257
1321428988196,1.16463
1321429048196,1.15814
1321429108196,1.16145
1321429168196,1.16044
1321429228196,1.16063
1321429288196,1.15308
1321429348196,1.15298
1321429408196,1.15466
1321429468196,1.15322
1321429528196,1.15274
1321429588196,1.14962
1321429648196,1.15603
1321429708196,1.15161
1321429768196,1.14845
1321429828196,1.14638
1321429888196,1.14455
1321429948196,1.14772
1321430008196,1.14344
1321430068196,1.14323
1321430128196,1.14038
1321430188196,1.14387
1321430248196,1.14217
1321430308196,1.14256
1321430368196,1.14266
1321430428206,1.14377
1321430488206,1.14421
1321430548206,1.13679
1321430608206,1.14288
1321430668206,1.14440
1321430728206,1.15134
1321430788206,1.14388
1321430848206,1.14461
1321430908206,1.14440
1321430968206,1.14285
1321431028206,1.14383
1321431088206,1.15072
1321431148206,1.14205
1321431208206,1.14673
1321431268206,1.14770
1321431328206,1.14252
1321431388206,1.14342
1321431448206,1.15041
1321431508206,1.14823
1321431568206,1.14355
1321431628206,1.14935
1321431688206,1.15217
1321431748206,1.14947
1321431808206,1.15142
1321431868206,1.15318
1321431928206,1.14657
1321431988206,1.15182
1321432048206,1.15879
1321432108206,1.14968
1321432168206,1.14903
1321432228206,1.15161
1321432288206,1.14934
1321432348206,1.15128
1321432408206,1.15026
1321432468206,1.15805
1321432528206,1.15256
1321432588206,1.15437
1321432648206,1.16360
1321432708206,1.15986
1321432768206,1.14929
1321432828206,1.16201
1321432888206,1.16440
1321432948206,1.15452
1321433008206,1.15762
1321433068206,1.16227
1321433128206,1.15937
1321433188206,1.16368
1321433248206,1.16104
1321433308206,1.15443
1321433368206,1.15483
1321433428206,1.15133
1321433488206,1.15828
1321433548206,1.15642
1321433608206,1.15981
1321433668206,1.15526
1321433728206,1.15921
1321433788206,1.15492
1321433848206,1.15764
1321433908206,1.16247
1321433968206,1.16010
1321434028217,1.15915
1321434088217,1.15334
1321434148217,1.14096
1321434208217,1.15277
1321434268217,1.15999
1321434328217,1.15252
1321434388217,1.15609
1321434448217,1.15266
1321434508217,1.15416
1321434568217,1.14892
1321434628217,1.15392
1321434688217,1.14086
1321434748217,1.15089
1321434808217,1.16622
1321434868217,1.15252
1321434928217,1.15078
1321434988217,1.16236
1321435048217,1.15207
1321435108217,1.15309
1321435168217,1.14865
1321435228217,1.15013
1321435288217,1.14742
1321435348217,1.14622
1321435408217,1.14713
1321435468217,1.15608
1321435528217,1.14063
1321435588217,1.14797
1321435648217,1.14738
1321435708217,1.14013
1321435768217,1.14639
1321435828217,1.15013
1321435888217,1.15992
1321435948217,1.15316
1321436008217,1.15965
1321436068217,1.14688
1321436128217,1.15225
1321436188217,1.15072
1321436248217,1.14919
1321436308217,1.15532
1321436368217,1.15191
1321436428217,1.15566
1321436488217,1.15513
1321436548217,1.14586
1321436608217,1.14910
1321436668217,1.14637
1321436728217,1.16020
1321436788217,1.15290
1321436848217,1.15477
1321436908217,1.15225
1321436968217,1.14792
1321437028217,1.15076
1321437088217,1.14091
1321437148217,1.14177
1321437208217,1.14272
1321437268217,1.15324
1321437328217,1.15435
1321437388217,1.15394
1321437448217,1.15740
1321437508217,1.14926
1321437568217,1.16264
1321437628228,1.15151
1321437688228,1.14844
1321437748228,1.15177
1321437808228,1.15421
1321437868228,1.15254
1321437928228,1.15131
1321437988228,1.14823
1321438048228,1.15784
1321438108228,1.15283
1321438168228,1.15422
1321438228228,1.15592
1321438288228,1.15995
1321438348228,1.15168
1321438408228,1.15421
1321438468228,1.15617
1321438528228,1.15266
1321438588228,1.15984
1321438648228,1.16196
1321438708228,1.16011
1321438768228,1.15624
1321438828228,1.15782
1321438888228,1.15317
1321438948228,1.15137
1321439008228,1.15669
1321439068228,1.14368
1321439128228,1.16691
1321439188228,1.15746
1321439248228,1.15732
1321439308228,1.15933
1321439368228,1.16195
1321439428228,1.15278
1321439488228,1.15128
1321439548228,1.15732
1321439608228,1.16081
1321439668228,1.14126
1321439728228,1.16087
1321439788228,1.15570
1321439848228,1.15047
1321439908228,1.15087
1321439968228,1.14873
1321440028228,1.15689
1321440088228,1.14960
1321440148228,1.15717
1321440208228,1.15643
1321440268228,1.15556
1321440328228,1.16130
1321440388228,1.16147
1321440448228,1.16129
1321440508228,1.16648
1321440568228,1.15806
1321440628228,1.16730
1321440688228,1.16658
1321440748228,1.16411
1321440808228,1.17187
1321440868228,1.15886
1321440928228,1.16131
1321440988228,1.16066
1321441048228,1.16452
1321441108228,1.16845
1321441168228,1.16459
1321441228240,1.16493
1321441288240,1.16528
1321441348240,1.16497
1321441408240,1.16867
1321441468239,1.16644
1321441528239,1.16528
1321441588239,1.16232
1321441648239,1.16423
1321441708240,1.15839
1321441768240,1.16626
1321441828240,1.15878
1321441888240,1.16586
1321441948240,1.15978
1321442008240,1.16275
1321442068240,1.16269
1321442128240,1.15475
1321442188240,1.16097
1321442248240,1.16493
1321442308240,1.16033
1321442368240,1.15937
1321442428240,1.15416
1321442488240,1.15391
1321442548240,1.16112
1321442608240,1.15331
1321442668240,1.15830
1321442728240,1.15117
1321442788240,1.15793
1321442848239,1.15493
1321442908239,1.14976
1321442968239,1.15211
1321443028239,1.15034
1321443088240,1.15661
1321443148240,1.14667
1321443208240,1.15420
1321443268240,1.15586
1321443328240,1.16235
1321443388240,1.15838
1321443448240,1.16428
1321443508240,1.15456
1321443568240,1.16683
1321443628240,1.16500
1321443688240,1.15919
1321443748240,1.16164
1321443808240,1.15229
1321443868240,1.16234
1321443928240,1.16994
1321443988240,1.16841
1321444048240,1.17055
1321444108240,1.15294
1321444168239,1.16270
1321444228239,1.16750
1321444288239,1.16265
1321444348239,1.16304
1321444408240,1.16413
1321444468240,1.15248
1321444528240,1.15273
1321444588240,1.15387
1321444648240,1.16191
1321444708240,1.15386
1321444768240,1.15678
1321444828251,1.15674
1321444888251,1.15414
1321444948251,1.15275
1321445008251,1.14437
1321445068251,1.15095
1321445128251,1.14260
1321445188251,1.15236
1321445248251,1.15244
1321445308251,1.14548
1321445368251,1.15030
1321445428251,1.14639
1321445488251,1.15498
1321445548251,1.14256
1321445608251,1.14303
1321445668251,1.15039
1321445728251,1.14100
1321445788251,1.15542
1321445848251,1.13962
1321445908251,1.13881
1321445968251,1.14029
1321446028251,1.14381
1321446088251,1.13978
1321446148251,1.14094
1321446208251,1.14344
1321446268251,1.13975
1321446328251,1.14347
1321446388251,1.14072
1321446448251,1.14507
1321446508251,1.15225
1321446568251,1.14885
1321446628251,1.14894
1321446688251,1.16242
1321446748251,1.14648
1321446808251,1.15824
1321446868251,1.16323
1321446928251,1.16095
1321446988251,1.16926
1321447048251,1.16304
1321447108251,1.17256
1321447168251,1.16631
1321447228251,1.16848
1321447288251,1.17710
1321447348251,1.17697
1321447408251,1.17449
1321447468251,1.17063
1321447528251,1.16163
1321447588251,1.17222
1321447648251,1.17253
1321447708251,1.17076
1321447768251,1.17995
1321447828251,1.17623
1321447888251,1.18816
1321447948251,1.18265
1321448008251,1.18183
1321448068251,1.18408
1321448128251,1.18663
1321448188251,1.17857
1321448248251,1.19682
1321448308251,1.19002
1321448368251,1.19477
1321448428263,1.19098
1321448488263,1.19704
1321448548263,1.19431
1321448608263,1.18782
1321448668263,1.19021
1321448728263,1.19525
1321448788263,1.19642
1321448848263,1.18145
1321448908263,1.19267
1321448968263,1.18633
1321449028263,1.18724
1321449088263,1.17870
1321449148263,1.17183
1321449208263,1.17754
1321449268263,1.16547
1321449328263,1.17182
1321449388263,1.16133
1321449448263,1.16761
1321449508263,1.16251
1321449568263,1.16536
1321449628263,1.16802
1321449688263,1.17115
1321449748263,1.16095
1321449808263,1.16217
1321449868263,1.16230
1321449928263,1.15694
1321449988263,1.15864
1321450048263,1.16390
1321450108263,1.16167
1321450168263,1.17015
1321450228263,1.16696
1321450288263,1.16866
1321450348263,1.18953
1321450408263,1.19690
1321450468263,1.21484
1321450528263,1.23120
1321450588263,1.22841
1321450648263,1.23355
1321450708263,1.23771
1321450768263,1.24583
1321450828263,1.23198
1321450888263,1.23837
1321450948263,1.22610
1321451008263,1.22364
1321451068263,1.21969
1321451128263,1.21612
1321451188263,1.21492
1321451248263,1.20943
1321451308263,1.20703
1321451368263,1.20017
1321451428263,1.19960
1321451488263,1.20415
1321451548263,1.20134
1321451608263,1.20388
1321451668263,1.20221
1321451728263,1.20022
1321451788263,1.20309
1321451848263,1.19926
1321451908263,1.20131
1321451968263,1.20120
1321452028275,1.21196
1321452088275,1.19890
1321452148275,1.20112
1321452208275,1.19673
1321452268275,1.20062
1321452328275,1.21544
1321452388275,1.21089
1321452448275,1.22869
1321452508275,1.22188
1321452568275,1.21672
1321452628275,1.21016
1321452688275,1.20316
1321452748275,1.19408
1321452808275,1.19717
1321452868275,1.18649
1321452928275,1.18907
1321452988275,1.19620
1321453048275,1.18912
1321453108275,1.18015
1321453168275,1.18792
1321453228275,1.18865
1321453288275,1.18385
1321453348275,1.17685
1321453408275,1.18311
1321453468275,1.18604
1321453528275,1.17377
1321453588275,1.17340
1321453648275,1.17952
1321453708275,1.17661
1321453768275,1.16975
1321453828275,1.16482
1321453888275,1.16931
1321453948275,1.17913
1321454008275,1.16464
1321454068275,1.16661
1321454128275,1.16874
1321454188275,1.16736
1321454248275,1.16244
1321454308275,1.16353
1321454368275,1.15655
1321454428275,1.15046
1321454488275,1.15493
1321454548275,1.16389
1321454608275,1.16390
1321454668275,1.16335
1321454728275,1.16096
1321454788275,1.16094
1321454848275,1.15566
1321454908275,1.16176
1321454968275,1.16070
1321455028275,1.16054
1321455088275,1.17775
1321455148275,1.17537
1321455208275,1.19288
1321455268275,1.20338
1321455328275,1.22110
1321455388275,1.23393
1321455448275,1.24324
1321455508275,1.26360
1321455568275,1.27836
1321455628287,1.28424
1321455688287,1.29167
1321455748287,1.30173
1321455808287,1.30672
1321455868287,1.32524
1321455928287,1.33396
1321455988287,1.33426
1321456048287,1.34987
1321456108287,1.35161
1321456168287,1.35576
1321456228287,1.34876
1321456288287,1.36362
1321456348287,1.36617
1321456408287,1.37043
1321456468287,1.36987
1321456528287,1.36653
1321456588287,1.39235
1321456648287,1.38419
1321456708287,1.38230
1321456768287,1.38417
1321456828287,1.39161
1321456888287,1.38413
1321456948287,1.38219
1321457008287,1.38665
1321457068287,1.38760
1321457128287,1.38431
1321457188287,1.37825
1321457248287,1.38208
1321457308287,1.36677
1321457368287,1.37008
1321457428287,1.35311
1321457488287,1.35596
1321457548287,1.35126
1321457608287,1.35284
1321457668287,1.33810
1321457728287,1.33857
1321457788287,1.34231
1321457848287,1.33376
1321457908287,1.33244
1321457968287,1.32170
1321458028287,1.31496
1321458088287,1.31831
1321458148287,1.30536
1321458208287,1.30337
1321458268287,1.29230
1321458328287,1.29214
1321458388287,1.29213
1321458448287,1.27758
1321458508287,1.27548
1321458568287,1.27131
1321458628287,1.25450
1321458688287,1.26590
1321458748287,1.25449
1321458808287,1.24577
1321458868287,1.24935
1321458928287,1.25499
1321458988287,1.23883
1321459048287,1.22990
1321459108287,1.23600
1321459168287,1.22930
1321459228298,1.23419
1321459288298,1.22914
1321459348298,1.22790
1321459408298,1.21977
1321459468298,1.20449
1321459528298,1.20843
1321459588298,1.22144
1321459648298,1.20927
1321459708298,1.21083
1321459768298,1.20703
1321459828298,1.19931
1321459888298,1.20385
1321459948298,1.20728
1321460008298,1.20399
1321460068298,1.20640
1321460128298,1.20332
1321460188298,1.20055
1321460248298,1.19829
1321460308298,1.19239
1321460368298,1.19103
1321460428298,1.19418
1321460488298,1.19147
1321460548298,1.19817
1321460608298,1.18939
1321460668298,1.19565
1321460728298,1.18972
1321460788298,1.20370
1321460848298,1.19363
1321460908298,1.18955
1321460968298,1.20204
1321461028298,1.19726
1321461088298,1.18746
1321461148298,1.19789
1321461208298,1.18648
1321461268298,1.18008
1321461328298,1.19116
1321461388298,1.18543
1321461448298,1.19435
1321461508298,1.18659
1321461568298,1.18607
1321461628298,1.19751
1321461688298,1.19397
1321461748298,1.19288
1321461808298,1.19952
1321461868298,1.20653
1321461928298,1.20154
1321461988298,1.20724
1321462048298,1.20492
1321462108298,1.20707
1321462168298,1.21381
1321462228298,1.21075
1321462288298,1.21343
1321462348298,1.22041
1321462408298,1.21740
1321462468298,1.22371
1321462528298,1.21551
1321462588298,1.21579
1321462648298,1.22569
1321462708298,1.22757
1321462768298,1.22232
1321462828310,1.25129
1321462888310,1.22961
1321462948310,1.22963
1321463008310,1.23047
1321463068310,1.22813
1321463128310,1.22046
1321463188310,1.21675
1321463248310,1.22785
1321463308310,1.22095
1321463368310,1.21632
1321463428310,1.22355
1321463488310,1.22214
1321463548310,1.22270
1321463608310,1.20746
1321463668310,1.21785
1321463728310,1.21329
1321463788310,1.21802
1321463848310,1.20005
1321463908310,1.20402
1321463968310,1.20401
1321464028310,1.20841
1321464088310,1.20167
1321464148310,1.20223
1321464208310,1.20768
1321464268310,1.20071
1321464328310,1.19907
1321464388310,1.19689
1321464448310,1.19536
1321464508310,1.19920
1321464568310,1.18881
1321464628310,1.19896
1321464688310,1.19152
1321464748310,1.19688
1321464808310,1.19203
1321464868310,1.19058
1321464928310,1.19412
1321464988310,1.19197
1321465048310,1.17740
1321465108310,1.19275
1321465168310,1.18958
1321465228310,1.19220
1321465288310,1.18605
1321465348310,1.18251
1321465408310,1.18154
1321465468310,1.18187
1321465528310,1.18702
1321465588310,1.16899
1321465648310,1.18634
1321465708310,1.18387
1321465768310,1.18039
1321465828310,1.18214
1321465888310,1.18497
1321465948310,1.17502
1321466008310,1.18008
1321466068310,1.17941
1321466128310,1.17449
1321466188310,1.17712
1321466248310,1.17627
1321466308310,1.17527
1321466368310,1.17948
1321466428321,1.17826
1321466488321,1.17923
1321466548321,1.17708
1321466608321,1.17735
1321466668321,1.16589
1321466728321,1.16386
1321466788321,1.16220
1321466848321,1.16600
1321466908321,1.17050
1321466968321,1.15796
1321467028321,1.16910
1321467088321,1.16081
1321467148321,1.15397
1321467208321,1.15998
1321467268321,1.16354
1321467328321,1.15726
1321467388321,1.15891
1321467448321,1.15841